Regional Weather Roundup
Issued by NWS Sterling, VA

Home | Current Version | Previous Version | Graphics & Text | Print | Product List | Glossary On
Versions: 1 2 3 4 5 6 7 8 9 10 11 12 13 14 15 16 17 18 19 20 21 22 23 24 25 26 27 28
000
ASUS41 KLWX 292110
RWRLWX

REGIONAL WEATHER ROUNDUP
NATIONAL WEATHER SERVICE BALTIMORE MD/WASHINGTON DC
500 PM EDT MON AUG 29 2016

Note: "FAIR" indicates few or no clouds below 12,000 feet
with no significant weather and/or obstructions to visibility.
 TC=TEMPERATURE CELSIUS

 * =Non NWS site. Station does not report precipitation (e.g. rain,
    snow, etc.), thunder, or fog.

DCZ001-MDZ009-015-VAZ040>042-051-053>054-292200-
WASHINGTON METRO

CITY           SKY/WX    TMP DP  RH WIND       PRES   REMARKS
WASHINGTON NAT PTSUNNY   93  69  45 NE7       30.07F HX  98
DULLES         MOSUNNY   91  64  40 N7        30.09F HX  92
ANDREWS AFB    SUNNY     89  67  48 S3        30.07F HX  92
FT BELVOIR     MOSUNNY   90  71  54 SE9       30.07F HX  96
QUANTICO       MOSUNNY   90  69  50 SE6       30.08F HX  94
COLLEGE PARK*  SUNNY     90  66  45 N5        30.07F HX  92
LEESBURG*      MOSUNNY   90  72  55 NW5       30.10F HX  96
GAITHERSBURG*  MOSUNNY   88  68  51 NE5       30.13F HX  91

$$

MDZ006>007-011-014-292200-
BALTIMORE METRO

CITY           SKY/WX    TMP DP  RH WIND       PRES   REMARKS
BWI AIRPORT    PTSUNNY   91  68  46 VRB3      30.07F HX  95
MD SCIENCE CTR   N/A     89  69  51 MISG      30.07F HX  93
MARTIN STATE   MOSUNNY   88  75  66 SE5       30.09  HX  97
ANNAPOLIS      MOSUNNY   86  72  62 SE8       30.07F HX  92
FORT MEADE*    MOSUNNY   86  70  58 CALM      30.09F HX  90

$$

MDZ012-015-019>023-292200-
MARYLAND EASTERN SHORE

CITY           SKY/WX    TMP DP  RH WIND       PRES   REMARKS
OCEAN CITY     SUNNY     83  64  52 SE6       30.08F
SALISBURY      SUNNY     90  68  48 N5        30.06F HX  94
BAY BRIDGE AP* MOSUNNY   88  66  48 CALM      30.07F HX  90
CAMBRIDGE*     SUNNY     86  68  54 N6        30.07F
EASTON*        MOSUNNY   90  73  58 N5        30.11F HX  98

$$

MDZ017>025-292200-
SOUTHERN MARYLAND

CITY           SKY/WX    TMP DP  RH WIND       PRES   REMARKS
PATUXENT RIVER MOSUNNY   88  68  51 NE7       30.07F HX  91
ST INIGOES     SUNNY     86  68  54 S7        30.07F
LEONARDTOWN*   SUNNY     86  68  54 NE3       30.09F

$$

MDZ003>005-292200-
NORTH CENTRAL MARYLAND

CITY           SKY/WX    TMP DP  RH WIND       PRES   REMARKS
FREDERICK*     PTSUNNY   88  75  66 VRB3      30.12F HX  97
HAGERSTOWN APT MOSUNNY   92  61  35 E3        30.11F HX  92

$$

MDZ501>502-292200-
WESTERN MARYLAND

CITY           SKY/WX    TMP DP  RH WIND       PRES   REMARKS
OAKLAND*       SUNNY     77  59  53 N3        30.27F
CUMBERLAND*    MOSUNNY   90  59  35 E6        30.16S

$$

VAZ025>031-292200-
SHENANDOAH VALLEY

CITY           SKY/WX    TMP DP  RH WIND       PRES   REMARKS
WINCHESTER*    MOSUNNY   88  66  48 CALM      30.12F HX  90
FRONT ROYAL*   FAIR      88  70  55 CALM      30.11F HX  92
LURAY*         FAIR      90  64  43 CALM      30.13S HX  91
NEW MARKET*    FAIR     N/A N/A N/A NE5       30.11F
STAUNTON*      MOSUNNY   88  65  46 NE8       30.16F
WAYNESBORO*    FAIR      87  64  46 NW3       30.15F

$$

WVZ021-048>050-054>055-292200-
EASTERN WEST VIRGINIA PANHANDLE

CITY           SKY/WX    TMP DP  RH WIND       PRES   REMARKS
MARTINSBURG    SUNNY     92  64  39 VRB6      30.10F HX  93
PETERSBURG*    SUNNY     91  66  43 CALM      30.13F HX  93

$$

VAZ036>039-050-292200-
CENTRAL FOOTHILLS

CITY           SKY/WX    TMP DP  RH WIND       PRES   REMARKS
CHARLOTTESVILL MOSUNNY   91  67  44 NE7       30.11F HX  94
CULPEPER*      MOSUNNY   90  71  52 NW5       30.10F HX  96
ORANGE*        NOT AVBL
GORDONSVILLE*  NOT AVBL
WARRENTON*     FAIR      92  60  33 CALM      30.09F HX  92

$$

VAZ055>057-292200-
NORTH AND CENTRAL PIEDMONT

CITY           SKY/WX    TMP DP  RH WIND       PRES   REMARKS
FREDERICKSBRG*   N/A     91  69  48 N6        30.07F HX  95
STAFFORD*      SUNNY     91  64  39 CALM      30.13S HX  92

$$

NCZ024-NYZ072-PAZ021-071-VAZ022-071-292200-
OTHER REGIONAL OBSERVATIONS

CITY           SKY/WX    TMP DP  RH WIND       PRES   REMARKS
NEW YORK CITY  SUNNY     88  59  37 VRB5      30.09S
PHILADELPHIA   MOSUNNY   93  62  35 N10       30.05F HX  93
PITTSBURGH     MOSUNNY   86  53  32 VRB7      30.19F
ROANOKE        PTSUNNY   88  66  48 SE7       30.15F HX  90
RICHMOND       MOSUNNY   90  63  40 VRB7      30.08F HX  91
RALEIGH        MOSUNNY   89  63  41 NE5       30.09S HX  90

$$

ANZ530>537-292200-
MARINE OBSERVATIONS

STATION/POSITION TIME  TEMP    WIND        PRES
                       AIR SEA DIR/SP/G
                 (UTC) (F)     (DEG/KT/KT) (MB)
THOMAS PT LIGHT  2100   84 84  150/  5/  6 1019.7F
BALT KEY BRIDGE  2048   85     120/  8/  9 1018.3F
COVE POINT       2048   84      20/  4/  7 1019.2F
LEWISETTA        2048   84 85  110/  4/  4 1018.3F
SOLOMONS ISLAND  2042   84 84  100/  4/  6   N/A
PINEY POINT      2048          170/  5/  5   N/A

$$





USA.gov is the U.S. government's official web portal to all federal, state and local government web resources and services.